User: anonymous   Login
Location: Unspecified
(0.0000°N, 0.0000°E)
Time: 21:30:20
(UTC+00:00)
Language:

Picosat 6 - Orbit

View from above orbital plane
View from above orbital plane
View from above satellite
View from above satellite

Ground track
Ground track

The orbit data is extracted from the following two-line orbital elements,

1 26094U 00004M   18343.89291435  .00000058  00000-0  35263-4 0  9991
2 26094 100.2114 137.4052 0034593 101.9770 258.5295 14.42465955988931
Epoch (UTC): 09 December 2018 21:25:47
Eccentricity: 0.0034593
inclination: 100.2114°
perigee height: 726 km
apogee height: 775 km
right ascension of ascending node: 137.4052°
argument of perigee: 101.9770°
revolutions per day: 14.42465955
mean anomaly at epoch: 258.5295°
orbit number at epoch: 98893

The dashed part of the orbit path shows where the satellite is in the earth's shadow,  

DLR